Simultaneous Nadir Overpasses (SNOs) Predictions

Prediction of SNOs between AQUA and NOAA-19 Satellite Orbit:

Table of predicted SNOs for the next 14.0 days since TLE Epoch: 12/12/2020
Index Date (AQUA) Time (AQUA) Lat,Lon (AQUA) SZA (AQUA ) Date (NOAA-19) Time (NOAA-19) Lat,Lon (NOAA-19) SZA (NOAA-19 ) Distance(km) Time Diff (sec)
1 12/14/2020 05:20:51 -79.31,-105.82 76.63 12/14/2020 05:21:04 -79.31,-105.81 76.63 0.89 13
2 12/16/2020 10:54:34 79.30, -9.19 103.48 12/16/2020 10:54:15 79.31, -9.06 103.50 3.05 19
3 12/16/2020 11:44:02 -79.38, 157.88 76.40 12/16/2020 11:45:13 -79.42, 159.21 76.48 27.46 71
4 12/18/2020 16:28:16 -79.27, 87.53 76.47 12/18/2020 16:27:31 -79.27, 87.37 76.44 3.37 45
5 12/18/2020 17:17:44 79.30,-105.02 103.58 12/18/2020 17:18:29 79.31,-105.01 103.58 0.92 45
6 12/20/2020 22:02:00 79.28,-175.93 103.59 12/20/2020 22:00:48 79.14,-176.96 103.57 26.26 72
7 12/20/2020 22:51:26 -79.28, -8.31 76.41 12/20/2020 22:51:44 -79.28, -8.48 76.39 3.60 18
8 12/23/2020 04:25:10 79.29, 88.18 103.63 12/23/2020 04:24:58 79.26, 88.12 103.61 3.44 12
9 12/25/2020 09:58:52 -79.27,-175.11 76.44 12/25/2020 09:58:11 -79.26,-175.13 76.43 1.38 41



Historial Predications of SNOs between AQUA and NOAA-19
